Year,Month,Day,Hour,Minute,Value (Times are PST for temperature in C)
2013,07,25,00,00,13.60
2013,07,25,00,01,13.50
2013,07,25,00,02,13.40
2013,07,25,00,03,13.30
2013,07,25,00,04,13.20
2013,07,25,00,05,13.20
2013,07,25,00,06,13.30
2013,07,25,00,07,13.40
2013,07,25,00,08,13.40
2013,07,25,00,09,13.60
2013,07,25,00,10,13.60
2013,07,25,00,11,13.60
2013,07,25,00,12,13.60
2013,07,25,00,13,13.70
2013,07,25,00,14,13.60
2013,07,25,00,15,13.50
2013,07,25,00,16,13.40
2013,07,25,00,17,13.40
2013,07,25,00,18,13.30
2013,07,25,00,19,13.30
2013,07,25,00,20,13.30
2013,07,25,00,21,13.30
2013,07,25,00,22,13.20
2013,07,25,00,23,13.20
2013,07,25,00,24,13.10
2013,07,25,00,25,13.10
2013,07,25,00,26,13.10
2013,07,25,00,27,13.10
2013,07,25,00,28,13.20
2013,07,25,00,29,13.20
2013,07,25,00,30,13.10
2013,07,25,00,31,13.20
2013,07,25,00,32,13.20
2013,07,25,00,33,13.30
2013,07,25,00,34,13.30
2013,07,25,00,35,13.20
2013,07,25,00,36,13.20
2013,07,25,00,37,13.20
2013,07,25,00,38,13.20
2013,07,25,00,39,13.10
2013,07,25,00,40,13.20
2013,07,25,00,41,13.20
2013,07,25,00,42,13.30
2013,07,25,00,43,13.20
2013,07,25,00,44,13.20
2013,07,25,00,45,13.20
2013,07,25,00,46,13.10
2013,07,25,00,47,13.10
2013,07,25,00,48,13.10
2013,07,25,00,49,13.10
2013,07,25,00,50,13.10
2013,07,25,00,51,13.10
2013,07,25,00,52,13.10
2013,07,25,00,53,13.00
2013,07,25,00,54,13.00
2013,07,25,00,55,13.10
2013,07,25,00,56,13.00
2013,07,25,00,57,13.00
2013,07,25,00,58,13.00
2013,07,25,00,59,13.10
2013,07,25,01,00,13.10
2013,07,25,01,01,13.10
2013,07,25,01,02,13.10
2013,07,25,01,03,13.20
2013,07,25,01,04,13.20
2013,07,25,01,05,13.20
2013,07,25,01,06,13.20
2013,07,25,01,07,13.20
2013,07,25,01,08,13.20
2013,07,25,01,09,13.30
2013,07,25,01,10,13.30
2013,07,25,01,11,13.20
2013,07,25,01,12,13.20
2013,07,25,01,13,13.10
2013,07,25,01,14,13.10
2013,07,25,01,15,13.00
2013,07,25,01,16,13.10
2013,07,25,01,17,13.20
2013,07,25,01,18,13.20
2013,07,25,01,19,13.30
2013,07,25,01,20,13.30
2013,07,25,01,21,13.40
2013,07,25,01,22,13.60
2013,07,25,01,23,13.70
2013,07,25,01,24,13.70
2013,07,25,01,25,13.60
2013,07,25,01,26,13.60
2013,07,25,01,27,13.70
2013,07,25,01,28,13.70
2013,07,25,01,29,13.70
2013,07,25,01,30,13.60
2013,07,25,01,31,13.40
2013,07,25,01,32,13.40
2013,07,25,01,33,13.40
2013,07,25,01,34,13.40
2013,07,25,01,35,13.50
2013,07,25,01,36,13.50
2013,07,25,01,37,13.50
2013,07,25,01,38,13.50
2013,07,25,01,39,13.40
2013,07,25,01,40,13.40
2013,07,25,01,41,13.40
2013,07,25,01,42,13.40
2013,07,25,01,43,13.30
2013,07,25,01,44,13.30
2013,07,25,01,45,13.30
2013,07,25,01,46,13.30
2013,07,25,01,47,13.30
2013,07,25,01,48,13.30
2013,07,25,01,49,13.20
2013,07,25,01,50,13.20
2013,07,25,01,51,13.30
2013,07,25,01,52,13.30
2013,07,25,01,53,13.50
2013,07,25,01,54,13.60
2013,07,25,01,55,13.70
2013,07,25,01,56,13.70
2013,07,25,01,57,13.70
2013,07,25,01,58,13.70
2013,07,25,01,59,13.70
2013,07,25,02,00,13.70
2013,07,25,02,01,13.70
2013,07,25,02,02,13.60
2013,07,25,02,03,13.60
2013,07,25,02,04,13.80
2013,07,25,02,05,13.90
2013,07,25,02,06,14.00
2013,07,25,02,07,14.10
2013,07,25,02,08,14.20
2013,07,25,02,09,14.20
2013,07,25,02,10,14.20
2013,07,25,02,11,14.20
2013,07,25,02,12,14.20
2013,07,25,02,13,14.10
2013,07,25,02,14,14.00
2013,07,25,02,15,14.00
2013,07,25,02,16,14.00
2013,07,25,02,17,13.90
2013,07,25,02,18,13.90
2013,07,25,02,19,14.00
2013,07,25,02,20,14.10
2013,07,25,02,21,14.20
2013,07,25,02,22,14.30
2013,07,25,02,23,14.30
2013,07,25,02,24,14.30
2013,07,25,02,25,14.30
2013,07,25,02,26,14.30
2013,07,25,02,27,14.30
2013,07,25,02,28,14.30
2013,07,25,02,29,14.30
2013,07,25,02,30,14.30
2013,07,25,02,31,14.30
2013,07,25,02,32,14.30
2013,07,25,02,33,14.30
2013,07,25,02,34,14.30
2013,07,25,02,35,14.30
2013,07,25,02,36,14.20
2013,07,25,02,37,14.20
2013,07,25,02,38,14.10
2013,07,25,02,39,14.10
2013,07,25,02,40,14.20
2013,07,25,02,41,14.20
2013,07,25,02,42,14.20
2013,07,25,02,43,14.20
2013,07,25,02,44,14.20
2013,07,25,02,45,14.20
2013,07,25,02,46,14.20
2013,07,25,02,47,14.10
2013,07,25,02,48,14.10
2013,07,25,02,49,13.90
2013,07,25,02,50,13.90
2013,07,25,02,51,13.90
2013,07,25,02,52,14.20
2013,07,25,02,53,14.50
2013,07,25,02,54,14.70
2013,07,25,02,55,14.80
2013,07,25,02,56,14.90
2013,07,25,02,57,14.90
2013,07,25,02,58,14.90
2013,07,25,02,59,14.80
2013,07,25,03,00,14.70
2013,07,25,03,01,14.60
2013,07,25,03,02,14.60
2013,07,25,03,03,14.40
2013,07,25,03,04,14.30
2013,07,25,03,05,14.30
2013,07,25,03,06,14.20
2013,07,25,03,07,14.20
2013,07,25,03,08,14.20
2013,07,25,03,09,14.10
2013,07,25,03,10,13.90
2013,07,25,03,11,13.70
2013,07,25,03,12,13.60
2013,07,25,03,13,13.40
2013,07,25,03,14,13.30
2013,07,25,03,15,13.20
2013,07,25,03,16,13.10
2013,07,25,03,17,13.00
2013,07,25,03,18,13.00
2013,07,25,03,19,12.90
2013,07,25,03,20,12.90
2013,07,25,03,21,12.90
2013,07,25,03,22,12.80
2013,07,25,03,23,12.80
2013,07,25,03,24,12.70
2013,07,25,03,25,12.60
2013,07,25,03,26,12.60
2013,07,25,03,27,12.50
2013,07,25,03,28,12.40
2013,07,25,03,29,12.40
2013,07,25,03,30,12.30
2013,07,25,03,31,12.30
2013,07,25,03,32,12.40
2013,07,25,03,33,12.50
2013,07,25,03,34,12.60
2013,07,25,03,35,12.60
2013,07,25,03,36,12.70
2013,07,25,03,37,12.70
2013,07,25,03,38,12.70
2013,07,25,03,39,12.70
2013,07,25,03,40,12.50
2013,07,25,03,41,12.30
2013,07,25,03,42,12.30
2013,07,25,03,43,12.20
2013,07,25,03,44,12.10
2013,07,25,03,45,11.90
2013,07,25,03,46,11.80
2013,07,25,03,47,11.70
2013,07,25,03,48,11.70
2013,07,25,03,49,11.60
2013,07,25,03,50,11.60
2013,07,25,03,51,11.60
2013,07,25,03,52,11.70
2013,07,25,03,53,11.60
2013,07,25,03,54,11.60
2013,07,25,03,55,11.70
2013,07,25,03,56,11.70
2013,07,25,03,57,11.80
2013,07,25,03,58,11.80
2013,07,25,03,59,11.80
2013,07,25,04,00,11.90
2013,07,25,04,01,11.80
2013,07,25,04,02,11.70
2013,07,25,04,03,11.70
2013,07,25,04,04,11.60
2013,07,25,04,05,11.50
2013,07,25,04,06,11.50
2013,07,25,04,07,11.30
2013,07,25,04,08,11.20
2013,07,25,04,09,11.10
2013,07,25,04,10,11.10
2013,07,25,04,11,11.10
2013,07,25,04,12,11.10
2013,07,25,04,13,11.20
2013,07,25,04,14,11.20
2013,07,25,04,15,11.30
2013,07,25,04,16,11.20
2013,07,25,04,17,11.10
2013,07,25,04,18,11.10
2013,07,25,04,19,11.00
2013,07,25,04,20,10.90
2013,07,25,04,21,10.90
2013,07,25,04,22,10.90
2013,07,25,04,23,10.90
2013,07,25,04,24,10.90
2013,07,25,04,25,10.90
2013,07,25,04,26,10.80
2013,07,25,04,27,10.80
2013,07,25,04,28,10.80
2013,07,25,04,29,10.80
2013,07,25,04,30,10.90
2013,07,25,04,31,10.90
2013,07,25,04,32,11.00
2013,07,25,04,33,11.20
2013,07,25,04,34,11.20
2013,07,25,04,35,11.30
2013,07,25,04,36,11.50
2013,07,25,04,37,11.60
2013,07,25,04,38,11.60
2013,07,25,04,39,11.60
2013,07,25,04,40,11.60
2013,07,25,04,41,11.50
2013,07,25,04,42,11.50
2013,07,25,04,43,11.50
2013,07,25,04,44,11.50
2013,07,25,04,45,11.60
2013,07,25,04,46,11.50
2013,07,25,04,47,11.50
2013,07,25,04,48,11.60
2013,07,25,04,49,11.60
2013,07,25,04,50,11.60
2013,07,25,04,51,11.60
2013,07,25,04,52,11.60
2013,07,25,04,53,11.60
2013,07,25,04,54,11.60
2013,07,25,04,55,11.60
2013,07,25,04,56,11.60
2013,07,25,04,57,11.80
2013,07,25,04,58,12.00
2013,07,25,04,59,12.20
2013,07,25,05,00,12.30
2013,07,25,05,01,12.30
2013,07,25,05,02,12.40
2013,07,25,05,03,12.40
2013,07,25,05,04,12.30
2013,07,25,05,05,12.30
2013,07,25,05,06,12.20
2013,07,25,05,07,12.10
2013,07,25,05,08,12.00
2013,07,25,05,09,11.80
2013,07,25,05,10,11.70
2013,07,25,05,11,11.50
2013,07,25,05,12,11.40
2013,07,25,05,13,11.30
2013,07,25,05,14,11.10
2013,07,25,05,15,11.10
2013,07,25,05,16,11.00
2013,07,25,05,17,11.00
2013,07,25,05,18,10.90
2013,07,25,05,19,10.90
2013,07,25,05,20,10.80
2013,07,25,05,21,10.90
2013,07,25,05,22,10.90
2013,07,25,05,23,11.00
2013,07,25,05,24,11.10
2013,07,25,05,25,11.10
2013,07,25,05,26,11.20
2013,07,25,05,27,11.30
2013,07,25,05,28,11.20
2013,07,25,05,29,11.10
2013,07,25,05,30,11.00
2013,07,25,05,31,10.90
2013,07,25,05,32,10.90
2013,07,25,05,33,10.80
2013,07,25,05,34,10.90
2013,07,25,05,35,11.20
2013,07,25,05,36,11.50
2013,07,25,05,37,11.60
2013,07,25,05,38,11.50
2013,07,25,05,39,11.60
2013,07,25,05,40,11.70
2013,07,25,05,41,11.80
2013,07,25,05,42,11.70
2013,07,25,05,43,11.50
2013,07,25,05,44,11.50
2013,07,25,05,45,11.50
2013,07,25,05,46,11.60
2013,07,25,05,47,11.80
2013,07,25,05,48,11.80
2013,07,25,05,49,11.70
2013,07,25,05,50,11.90
2013,07,25,05,51,12.10
2013,07,25,05,52,12.20
2013,07,25,05,53,12.30
2013,07,25,05,54,12.40
2013,07,25,05,55,12.30
2013,07,25,05,56,12.40
2013,07,25,05,57,12.50
2013,07,25,05,58,12.30
2013,07,25,05,59,12.20
2013,07,25,06,00,12.20
2013,07,25,06,01,12.40
2013,07,25,06,02,12.30
2013,07,25,06,03,12.30
2013,07,25,06,04,12.40
2013,07,25,06,05,12.50
2013,07,25,06,06,12.50
2013,07,25,06,07,12.50
2013,07,25,06,08,12.40
2013,07,25,06,09,12.40
2013,07,25,06,10,12.30
2013,07,25,06,11,12.30
2013,07,25,06,12,12.20
2013,07,25,06,13,12.10
2013,07,25,06,14,12.20
2013,07,25,06,15,12.20
2013,07,25,06,16,12.00
2013,07,25,06,17,11.80
2013,07,25,06,18,11.60
2013,07,25,06,19,11.50
2013,07,25,06,20,11.50
2013,07,25,06,21,11.40
2013,07,25,06,22,11.40
2013,07,25,06,23,11.40
2013,07,25,06,24,11.30
2013,07,25,06,25,11.30
2013,07,25,06,26,11.30
2013,07,25,06,27,11.30
2013,07,25,06,28,11.30
2013,07,25,06,29,11.40
2013,07,25,06,30,11.50
2013,07,25,06,31,11.70
2013,07,25,06,32,11.80
2013,07,25,06,33,11.90
2013,07,25,06,34,12.20
2013,07,25,06,35,12.40
2013,07,25,06,36,12.50
2013,07,25,06,37,12.50
2013,07,25,06,38,12.70
2013,07,25,06,39,12.90
2013,07,25,06,40,13.00
2013,07,25,06,41,13.10
2013,07,25,06,42,13.20
2013,07,25,06,43,13.20
2013,07,25,06,44,13.30
2013,07,25,06,45,13.30
2013,07,25,06,46,13.20
2013,07,25,06,47,13.20
2013,07,25,06,48,13.20
2013,07,25,06,49,13.30
2013,07,25,06,50,13.40
2013,07,25,06,51,13.50
2013,07,25,06,52,13.50
2013,07,25,06,53,13.60
2013,07,25,06,54,13.50
2013,07,25,06,55,13.40
2013,07,25,06,56,13.30
2013,07,25,06,57,13.20
2013,07,25,06,58,13.20
2013,07,25,06,59,13.10
2013,07,25,07,00,13.00
2013,07,25,07,01,12.80
2013,07,25,07,02,12.70
2013,07,25,07,03,12.70
2013,07,25,07,04,12.60
2013,07,25,07,05,12.30
2013,07,25,07,06,12.10
2013,07,25,07,07,12.10
2013,07,25,07,08,12.30
2013,07,25,07,09,12.50
2013,07,25,07,10,12.60
2013,07,25,07,11,12.70
2013,07,25,07,12,12.80
2013,07,25,07,13,12.70
2013,07,25,07,14,12.70
2013,07,25,07,15,12.60
2013,07,25,07,16,12.70
2013,07,25,07,17,12.60
2013,07,25,07,18,12.50
2013,07,25,07,19,12.40
2013,07,25,07,20,12.30
2013,07,25,07,21,12.30
2013,07,25,07,22,12.20
2013,07,25,07,23,12.10
2013,07,25,07,24,12.00
2013,07,25,07,25,11.90
2013,07,25,07,26,11.90
2013,07,25,07,27,11.80
2013,07,25,07,28,11.70
2013,07,25,07,29,11.60
2013,07,25,07,30,11.60
2013,07,25,07,31,11.50
2013,07,25,07,32,11.50
2013,07,25,07,33,11.50
2013,07,25,07,34,11.50
2013,07,25,07,35,11.60
2013,07,25,07,36,11.60
2013,07,25,07,37,11.60
2013,07,25,07,38,11.70
2013,07,25,07,39,11.70
2013,07,25,07,40,11.70
2013,07,25,07,41,11.70
2013,07,25,07,42,11.60
2013,07,25,07,43,11.60
2013,07,25,07,44,11.50
2013,07,25,07,45,11.50
2013,07,25,07,46,11.50
2013,07,25,07,47,11.40
2013,07,25,07,48,11.40
2013,07,25,07,49,11.40
2013,07,25,07,50,11.40
2013,07,25,07,51,11.40
2013,07,25,07,52,11.40
2013,07,25,07,53,11.40
2013,07,25,07,54,11.40
2013,07,25,07,55,11.40
2013,07,25,07,56,11.40
2013,07,25,07,57,11.40
2013,07,25,07,58,11.40
2013,07,25,07,59,11.40
2013,07,25,08,00,11.30
2013,07,25,08,01,11.30
2013,07,25,08,02,11.30
2013,07,25,08,03,11.30
2013,07,25,08,04,11.30
2013,07,25,08,05,11.30
2013,07,25,08,06,11.30
2013,07,25,08,07,11.30
2013,07,25,08,08,11.30
2013,07,25,08,09,11.40
2013,07,25,08,10,11.40
2013,07,25,08,11,11.40
2013,07,25,08,12,11.40
2013,07,25,08,13,11.40
2013,07,25,08,14,11.40
2013,07,25,08,15,11.40
2013,07,25,08,16,11.40
2013,07,25,08,17,11.40
2013,07,25,08,18,11.40
2013,07,25,08,19,11.40
2013,07,25,08,20,11.40
2013,07,25,08,21,11.40
2013,07,25,08,22,11.30
2013,07,25,08,23,11.30
2013,07,25,08,24,11.30
2013,07,25,08,25,11.30
2013,07,25,08,26,11.30
2013,07,25,08,27,11.30
2013,07,25,08,28,11.30
2013,07,25,08,29,11.30
2013,07,25,08,30,11.30
2013,07,25,08,31,11.30
2013,07,25,08,32,11.20
2013,07,25,08,33,11.20
2013,07,25,08,34,11.20
2013,07,25,08,35,11.20
2013,07,25,08,36,11.20
2013,07,25,08,37,11.20
2013,07,25,08,38,11.20
2013,07,25,08,39,11.10
2013,07,25,08,40,11.10
2013,07,25,08,41,11.10
2013,07,25,08,42,11.10
2013,07,25,08,43,11.10
2013,07,25,08,44,11.10
2013,07,25,08,45,11.10
2013,07,25,08,46,11.10
2013,07,25,08,47,11.10
2013,07,25,08,48,11.10
2013,07,25,08,49,11.10
2013,07,25,08,50,11.10
2013,07,25,08,51,11.10
2013,07,25,08,52,11.10
2013,07,25,08,53,11.10
2013,07,25,08,54,11.10
2013,07,25,08,55,11.10
2013,07,25,08,56,11.10
2013,07,25,08,57,11.10
2013,07,25,08,58,11.10
2013,07,25,08,59,11.10
2013,07,25,09,00,11.10
2013,07,25,09,01,11.00
2013,07,25,09,02,11.00
2013,07,25,09,03,11.00
2013,07,25,09,04,11.00
2013,07,25,09,05,11.00
2013,07,25,09,06,10.90
2013,07,25,09,07,10.90
2013,07,25,09,08,10.90
2013,07,25,09,09,10.90
2013,07,25,09,10,10.90
2013,07,25,09,11,10.80
2013,07,25,09,12,10.80
2013,07,25,09,13,10.70
2013,07,25,09,14,10.70
2013,07,25,09,15,10.70
2013,07,25,09,16,10.60
2013,07,25,09,17,10.60
2013,07,25,09,18,10.60
2013,07,25,09,19,10.50
2013,07,25,09,20,10.50
2013,07,25,09,21,10.40
2013,07,25,09,22,10.40
2013,07,25,09,23,10.40
2013,07,25,09,24,10.40
2013,07,25,09,25,10.40
2013,07,25,09,26,10.40
2013,07,25,09,27,10.40
2013,07,25,09,28,10.30
2013,07,25,09,29,10.30
2013,07,25,09,30,10.30
2013,07,25,09,31,10.30
2013,07,25,09,32,10.30
2013,07,25,09,33,10.30
2013,07,25,09,34,10.30
2013,07,25,09,35,10.30
2013,07,25,09,36,10.30
2013,07,25,09,37,10.30
2013,07,25,09,38,10.30
2013,07,25,09,39,10.30
2013,07,25,09,40,10.30
2013,07,25,09,41,10.30
2013,07,25,09,42,10.30
2013,07,25,09,43,10.30
2013,07,25,09,44,10.30
2013,07,25,09,45,10.30
2013,07,25,09,46,10.30
2013,07,25,09,47,10.30
2013,07,25,09,48,10.30
2013,07,25,09,49,10.30
2013,07,25,09,50,10.30
2013,07,25,09,51,10.30
2013,07,25,09,52,10.30
2013,07,25,09,53,10.30
2013,07,25,09,54,10.30
2013,07,25,09,55,10.30
2013,07,25,09,56,10.30
2013,07,25,09,57,10.30
2013,07,25,09,58,10.30
2013,07,25,09,59,10.30
2013,07,25,10,00,10.30
2013,07,25,10,01,10.30
2013,07,25,10,02,10.30
2013,07,25,10,03,10.30
2013,07,25,10,04,10.30
2013,07,25,10,05,10.30
2013,07,25,10,06,10.30
2013,07,25,10,07,10.30
2013,07,25,10,08,10.30
2013,07,25,10,09,10.30
2013,07,25,10,10,10.30
2013,07,25,10,11,10.30
2013,07,25,10,12,10.30
2013,07,25,10,13,10.30
2013,07,25,10,14,10.30
2013,07,25,10,15,10.40
2013,07,25,10,16,10.40
2013,07,25,10,17,10.40
2013,07,25,10,18,10.40
2013,07,25,10,19,10.40
2013,07,25,10,20,10.40
2013,07,25,10,21,10.40
2013,07,25,10,22,10.40
2013,07,25,10,23,10.40
2013,07,25,10,24,10.40
2013,07,25,10,25,10.50
2013,07,25,10,26,10.50
2013,07,25,10,27,10.50
2013,07,25,10,28,10.50
2013,07,25,10,29,10.50
2013,07,25,10,30,10.50
2013,07,25,10,31,10.50
2013,07,25,10,32,10.60
2013,07,25,10,33,10.60
2013,07,25,10,34,10.60
2013,07,25,10,35,10.60
2013,07,25,10,36,10.60
2013,07,25,10,37,10.60
2013,07,25,10,38,10.60
2013,07,25,10,39,10.60
2013,07,25,10,40,10.60
2013,07,25,10,41,10.60
2013,07,25,10,42,10.60
2013,07,25,10,43,10.60
2013,07,25,10,44,10.60
2013,07,25,10,45,10.50
2013,07,25,10,46,10.50
2013,07,25,10,47,10.60
2013,07,25,10,48,10.60
2013,07,25,10,49,10.60
2013,07,25,10,50,10.60
2013,07,25,10,51,10.60
2013,07,25,10,52,10.60
2013,07,25,10,53,10.60
2013,07,25,10,54,10.60
2013,07,25,10,55,10.70
2013,07,25,10,56,10.70
2013,07,25,10,57,10.70
2013,07,25,10,58,10.70
2013,07,25,10,59,10.70
2013,07,25,11,00,10.70
2013,07,25,11,01,10.60
2013,07,25,11,02,10.60
2013,07,25,11,03,10.60
2013,07,25,11,04,10.60
2013,07,25,11,05,10.60
2013,07,25,11,06,10.60
2013,07,25,11,07,10.60
2013,07,25,11,08,10.60
2013,07,25,11,09,10.60
2013,07,25,11,10,10.60
2013,07,25,11,11,10.60
2013,07,25,11,12,10.60
2013,07,25,11,13,10.60
2013,07,25,11,14,10.60
2013,07,25,11,15,10.60
2013,07,25,11,16,10.50
2013,07,25,11,17,10.50
2013,07,25,11,18,10.50
2013,07,25,11,19,10.50
2013,07,25,11,20,10.50
2013,07,25,11,21,10.50
2013,07,25,11,22,10.50
2013,07,25,11,23,10.50
2013,07,25,11,24,10.50
2013,07,25,11,25,10.50
2013,07,25,11,26,10.50
2013,07,25,11,27,10.40
2013,07,25,11,28,10.50
2013,07,25,11,29,10.50
2013,07,25,11,30,10.50
2013,07,25,11,31,10.50
2013,07,25,11,32,10.50
2013,07,25,11,33,10.50
2013,07,25,11,34,10.50
2013,07,25,11,35,10.50
2013,07,25,11,36,10.50
2013,07,25,11,37,10.40
2013,07,25,11,38,10.40
2013,07,25,11,39,10.40
2013,07,25,11,40,10.40
2013,07,25,11,41,10.40
2013,07,25,11,42,10.40
2013,07,25,11,43,10.40
2013,07,25,11,44,10.40
2013,07,25,11,45,10.40
2013,07,25,11,46,10.40
2013,07,25,11,47,10.50
2013,07,25,11,48,10.50
2013,07,25,11,49,10.50
2013,07,25,11,50,10.50
2013,07,25,11,51,10.50
2013,07,25,11,52,10.40
2013,07,25,11,53,10.40
2013,07,25,11,54,10.40
2013,07,25,11,55,10.40
2013,07,25,11,56,10.40
2013,07,25,11,57,10.40
2013,07,25,11,58,10.40
2013,07,25,11,59,10.40
2013,07,25,12,00,10.40
2013,07,25,12,01,10.40
2013,07,25,12,02,10.40
2013,07,25,12,03,10.40
2013,07,25,12,04,10.40
2013,07,25,12,05,10.40
2013,07,25,12,06,10.30
2013,07,25,12,07,10.30
2013,07,25,12,08,10.30
2013,07,25,12,09,10.30
2013,07,25,12,10,10.30
2013,07,25,12,11,10.30
2013,07,25,12,12,10.30
2013,07,25,12,13,10.30
2013,07,25,12,14,10.30
2013,07,25,12,15,10.30
2013,07,25,12,16,10.30
2013,07,25,12,17,10.30
2013,07,25,12,18,10.30
2013,07,25,12,19,10.30
2013,07,25,12,20,10.30
2013,07,25,12,21,10.30
2013,07,25,12,22,10.30
2013,07,25,12,23,10.30
2013,07,25,12,24,10.30
2013,07,25,12,25,10.40
2013,07,25,12,26,10.40
2013,07,25,12,27,10.30
2013,07,25,12,28,10.40
2013,07,25,12,29,10.40
2013,07,25,12,30,10.40
2013,07,25,12,31,10.40
2013,07,25,12,32,10.40
2013,07,25,12,33,10.40
2013,07,25,12,34,10.40
2013,07,25,12,35,10.40
2013,07,25,12,36,10.30
2013,07,25,12,37,10.30
2013,07,25,12,38,10.30
2013,07,25,12,39,10.30
2013,07,25,12,40,10.30
2013,07,25,12,41,10.30
2013,07,25,12,42,10.30
2013,07,25,12,43,10.30
2013,07,25,12,44,10.30
2013,07,25,12,45,10.30
2013,07,25,12,46,10.40
2013,07,25,12,47,10.40
2013,07,25,12,48,10.40
2013,07,25,12,49,10.40
2013,07,25,12,50,10.40
2013,07,25,12,51,10.40
2013,07,25,12,52,10.40
2013,07,25,12,53,10.40
2013,07,25,12,54,10.40
2013,07,25,12,55,10.40
2013,07,25,12,56,10.40
2013,07,25,12,57,10.40
2013,07,25,12,58,10.40
2013,07,25,12,59,10.40
2013,07,25,13,00,10.40
2013,07,25,13,01,10.40
2013,07,25,13,02,10.40
2013,07,25,13,03,10.30
2013,07,25,13,04,10.30
2013,07,25,13,05,10.30
2013,07,25,13,06,10.30
2013,07,25,13,07,10.30
2013,07,25,13,08,10.40
2013,07,25,13,09,10.40
2013,07,25,13,10,10.40
2013,07,25,13,11,10.40
2013,07,25,13,12,10.40
2013,07,25,13,13,10.40
2013,07,25,13,14,10.40
2013,07,25,13,15,10.40
2013,07,25,13,16,10.40
2013,07,25,13,17,10.40
2013,07,25,13,18,10.40
2013,07,25,13,19,10.40
2013,07,25,13,20,10.40
2013,07,25,13,21,10.40
2013,07,25,13,22,10.40
2013,07,25,13,23,10.40
2013,07,25,13,24,10.40
2013,07,25,13,25,10.40
2013,07,25,13,26,10.50
2013,07,25,13,27,10.50
2013,07,25,13,28,10.50
2013,07,25,13,29,10.50
2013,07,25,13,30,10.50
2013,07,25,13,31,10.50
2013,07,25,13,32,10.50
2013,07,25,13,33,10.50
2013,07,25,13,34,10.50
2013,07,25,13,35,10.50
2013,07,25,13,36,10.50
2013,07,25,13,37,10.50
2013,07,25,13,38,10.50
2013,07,25,13,39,10.50
2013,07,25,13,40,10.50
2013,07,25,13,41,10.50
2013,07,25,13,42,10.50
2013,07,25,13,43,10.40
2013,07,25,13,44,10.50
2013,07,25,13,45,10.40
2013,07,25,13,46,10.40
2013,07,25,13,47,10.40
2013,07,25,13,48,10.50
2013,07,25,13,49,10.50
2013,07,25,13,50,10.40
2013,07,25,13,51,10.40
2013,07,25,13,52,10.40
2013,07,25,13,53,10.40
2013,07,25,13,54,10.40
2013,07,25,13,55,10.40
2013,07,25,13,56,10.40
2013,07,25,13,57,10.40
2013,07,25,13,58,10.40
2013,07,25,13,59,10.40
2013,07,25,14,00,10.40
2013,07,25,14,01,10.40
2013,07,25,14,02,10.40
2013,07,25,14,03,10.40
2013,07,25,14,04,10.40
2013,07,25,14,05,10.40
2013,07,25,14,06,10.40
2013,07,25,14,07,10.30
2013,07,25,14,08,10.30
2013,07,25,14,09,10.30
2013,07,25,14,10,10.30
2013,07,25,14,11,10.30
2013,07,25,14,12,10.40
2013,07,25,14,13,10.40
2013,07,25,14,14,10.30
2013,07,25,14,15,10.30
2013,07,25,14,16,10.30
2013,07,25,14,17,10.30
2013,07,25,14,18,10.30
2013,07,25,14,19,10.30
2013,07,25,14,20,10.30
2013,07,25,14,21,10.40
2013,07,25,14,22,10.40
2013,07,25,14,23,10.40
2013,07,25,14,24,10.40
2013,07,25,14,25,10.40
2013,07,25,14,26,10.40
2013,07,25,14,27,10.50
2013,07,25,14,28,10.50
2013,07,25,14,29,10.50
2013,07,25,14,30,10.50
2013,07,25,14,31,10.60
2013,07,25,14,32,10.60
2013,07,25,14,33,10.60
2013,07,25,14,34,10.60
2013,07,25,14,35,10.60
2013,07,25,14,36,10.70
2013,07,25,14,37,10.70
2013,07,25,14,38,10.70
2013,07,25,14,39,10.70
2013,07,25,14,40,10.70
2013,07,25,14,41,10.70
2013,07,25,14,42,10.70
2013,07,25,14,43,10.70
2013,07,25,14,44,10.70
2013,07,25,14,45,10.70
2013,07,25,14,46,10.70
2013,07,25,14,47,10.70
2013,07,25,14,48,10.70
2013,07,25,14,49,10.70
2013,07,25,14,50,10.70
2013,07,25,14,51,10.70
2013,07,25,14,52,10.70
2013,07,25,14,53,10.70
2013,07,25,14,54,10.70
2013,07,25,14,55,10.70
2013,07,25,14,56,10.80
2013,07,25,14,57,10.80
2013,07,25,14,58,10.90
2013,07,25,14,59,11.00
2013,07,25,15,00,11.00
2013,07,25,15,01,11.10
2013,07,25,15,02,11.10
2013,07,25,15,03,11.20
2013,07,25,15,04,11.20
2013,07,25,15,05,11.20
2013,07,25,15,06,11.30
2013,07,25,15,07,11.30
2013,07,25,15,08,11.30
2013,07,25,15,09,11.30
2013,07,25,15,10,11.40
2013,07,25,15,11,11.40
2013,07,25,15,12,11.40
2013,07,25,15,13,11.40
2013,07,25,15,14,11.40
2013,07,25,15,15,11.50
2013,07,25,15,16,11.60
2013,07,25,15,17,11.80
2013,07,25,15,18,11.80
2013,07,25,15,19,11.90
2013,07,25,15,20,11.80
2013,07,25,15,21,11.80
2013,07,25,15,22,11.80
2013,07,25,15,23,11.80
2013,07,25,15,24,11.80
2013,07,25,15,25,11.80
2013,07,25,15,26,11.80
2013,07,25,15,27,11.70
2013,07,25,15,28,11.70
2013,07,25,15,29,11.60
2013,07,25,15,30,11.60
2013,07,25,15,31,11.60
2013,07,25,15,32,11.60
2013,07,25,15,33,11.60
2013,07,25,15,34,11.60
2013,07,25,15,35,11.50
2013,07,25,15,36,11.50
2013,07,25,15,37,11.60
2013,07,25,15,38,11.60
2013,07,25,15,39,11.60
2013,07,25,15,40,11.60
2013,07,25,15,41,11.60
2013,07,25,15,42,11.60
2013,07,25,15,43,11.60
2013,07,25,15,44,11.60
2013,07,25,15,45,11.60
2013,07,25,15,46,11.60
2013,07,25,15,47,11.60
2013,07,25,15,48,11.70
2013,07,25,15,49,11.70
2013,07,25,15,50,11.70
2013,07,25,15,51,11.70
2013,07,25,15,52,11.70
2013,07,25,15,53,11.70
2013,07,25,15,54,11.70
2013,07,25,15,55,11.60
2013,07,25,15,56,11.60
2013,07,25,15,57,11.60
2013,07,25,15,58,11.60
2013,07,25,15,59,11.60
2013,07,25,16,00,11.60
2013,07,25,16,01,11.60
2013,07,25,16,02,11.70
2013,07,25,16,03,11.70
2013,07,25,16,04,11.70
2013,07,25,16,05,11.80
2013,07,25,16,06,11.80
2013,07,25,16,07,11.80
2013,07,25,16,08,11.80
2013,07,25,16,09,11.80
2013,07,25,16,10,11.80
2013,07,25,16,11,11.80
2013,07,25,16,12,11.80
2013,07,25,16,13,11.80
2013,07,25,16,14,11.80
2013,07,25,16,15,11.80
2013,07,25,16,16,11.80
2013,07,25,16,17,11.80
2013,07,25,16,18,11.80
2013,07,25,16,19,11.80
2013,07,25,16,20,11.80
2013,07,25,16,21,11.80
2013,07,25,16,22,11.80
2013,07,25,16,23,11.80
2013,07,25,16,24,11.80
2013,07,25,16,25,11.80
2013,07,25,16,26,11.80
2013,07,25,16,27,11.80
2013,07,25,16,28,11.80
2013,07,25,16,29,11.80
2013,07,25,16,30,11.80
2013,07,25,16,31,11.80
2013,07,25,16,32,11.80
2013,07,25,16,33,11.80
2013,07,25,16,34,11.80
2013,07,25,16,35,11.80
2013,07,25,16,36,11.80
2013,07,25,16,37,11.80
2013,07,25,16,38,11.80
2013,07,25,16,39,11.80
2013,07,25,16,40,11.90
2013,07,25,16,41,11.90
2013,07,25,16,42,11.90
2013,07,25,16,43,11.90
2013,07,25,16,44,11.90
2013,07,25,16,45,11.90
2013,07,25,16,46,11.90
2013,07,25,16,47,12.00
2013,07,25,16,48,12.00
2013,07,25,16,49,12.00
2013,07,25,16,50,11.90
2013,07,25,16,51,11.90
2013,07,25,16,52,11.90
2013,07,25,16,53,11.90
2013,07,25,16,54,11.90
2013,07,25,16,55,11.80
2013,07,25,16,56,11.80
2013,07,25,16,57,11.90
2013,07,25,16,58,11.90
2013,07,25,16,59,11.90
2013,07,25,17,00,11.90
2013,07,25,17,01,11.80
2013,07,25,17,02,11.80
2013,07,25,17,03,11.80
2013,07,25,17,04,11.80
2013,07,25,17,05,11.80
2013,07,25,17,06,11.80
2013,07,25,17,07,11.80
2013,07,25,17,08,11.80
2013,07,25,17,09,11.80
2013,07,25,17,10,11.80
2013,07,25,17,11,11.80
2013,07,25,17,12,11.80
2013,07,25,17,13,11.80
2013,07,25,17,14,11.80
2013,07,25,17,15,11.80
2013,07,25,17,16,11.90
2013,07,25,17,17,11.90
2013,07,25,17,18,11.90
2013,07,25,17,19,11.80